TimeCST,TemperatureF,Dew PointF,Humidity,Sea Level PressureIn,VisibilityMPH,Wind Direction,Wind SpeedMPH,Gust SpeedMPH,PrecipitationIn,Events,Conditions,WindDirDegrees,DateUTC
12:15 AM,12.2,8.6,85,29.90,10.0,NNW,11.5,-,N/A,,Mostly Cloudy,340,2013-02-22 06:15:00
12:35 AM,10.8,7.2,85,29.91,10.0,NNW,10.4,-,N/A,,Scattered Clouds,330,2013-02-22 06:35:00
12:55 AM,9.9,6.6,87,29.90,10.0,NNW,10.4,-,N/A,,Clear,330,2013-02-22 06:55:00
1:15 AM,9.5,6.3,87,29.91,10.0,NNW,10.4,-,N/A,,Clear,330,2013-02-22 07:15:00
1:35 AM,7.3,4.1,87,29.91,10.0,NNW,10.4,-,N/A,,Clear,330,2013-02-22 07:35:00
1:55 AM,6.4,3.0,86,29.92,10.0,WNW,8.1,-,N/A,,Clear,300,2013-02-22 07:55:00
2:15 AM,6.3,3.2,87,29.92,10.0,NW,10.4,-,N/A,,Clear,310,2013-02-22 08:15:00
2:35 AM,5.9,2.8,87,29.92,10.0,WNW,11.5,-,N/A,,Clear,290,2013-02-22 08:35:00
2:55 AM,6.3,3.0,87,29.92,10.0,WNW,9.2,-,N/A,,Clear,300,2013-02-22 08:55:00
3:15 AM,6.6,3.7,88,29.91,10.0,NW,9.2,-,N/A,,Clear,320,2013-02-22 09:15:00
3:35 AM,6.6,3.2,86,29.91,10.0,NW,9.2,-,N/A,,Clear,320,2013-02-22 09:35:00
3:55 AM,6.4,3.6,88,29.90,10.0,NW,8.1,-,N/A,,Scattered Clouds,320,2013-02-22 09:55:00
4:15 AM,7.7,4.3,86,29.91,10.0,WNW,6.9,-,N/A,,Scattered Clouds,290,2013-02-22 10:15:00
4:35 AM,7.3,3.7,85,29.91,10.0,West,11.5,-,N/A,,Clear,280,2013-02-22 10:35:00
4:55 AM,6.8,3.4,86,29.91,10.0,WNW,11.5,-,N/A,,Scattered Clouds,300,2013-02-22 10:55:00
5:15 AM,6.1,2.8,87,29.92,10.0,WNW,11.5,-,N/A,,Clear,300,2013-02-22 11:15:00
5:35 AM,6.8,3.6,87,29.92,10.0,WNW,11.5,-,N/A,,Clear,300,2013-02-22 11:35:00
5:55 AM,5.9,2.7,87,29.92,10.0,WNW,13.8,-,N/A,,Clear,300,2013-02-22 11:55:00
6:15 AM,5.7,2.1,85,29.92,10.0,NW,11.5,-,N/A,,Clear,310,2013-02-22 12:15:00
6:35 AM,4.8,1.4,86,29.93,10.0,WNW,11.5,-,N/A,,Clear,290,2013-02-22 12:35:00
6:55 AM,4.3,0.7,85,29.93,10.0,WNW,10.4,-,N/A,,Clear,290,2013-02-22 12:55:00
7:15 AM,3.7,0.3,86,29.94,10.0,WNW,10.4,-,N/A,,Clear,290,2013-02-22 13:15:00
7:35 AM,3.2,-0.0,86,29.95,10.0,WNW,10.4,-,N/A,,Clear,290,2013-02-22 13:35:00
7:55 AM,3.4,-0.2,85,29.95,10.0,WNW,9.2,-,N/A,,Clear,300,2013-02-22 13:55:00
8:15 AM,4.8,1.4,86,29.95,10.0,WNW,12.7,-,N/A,,Clear,300,2013-02-22 14:15:00
8:35 AM,6.4,2.5,84,29.95,10.0,NW,10.4,-,N/A,,Clear,310,2013-02-22 14:35:00
8:55 AM,7.0,2.8,83,29.96,10.0,NW,5.8,-,N/A,,Clear,320,2013-02-22 14:55:00
9:15 AM,7.9,4.1,85,29.97,10.0,WNW,8.1,-,N/A,,Clear,290,2013-02-22 15:15:00
9:35 AM,9.1,4.6,82,29.97,10.0,West,9.2,-,N/A,,Clear,280,2013-02-22 15:35:00
9:55 AM,10.4,5.9,82,29.98,10.0,WNW,10.4,-,N/A,,Clear,290,2013-02-22 15:55:00
10:15 AM,12.0,7.3,81,29.99,10.0,WNW,10.4,-,N/A,,Clear,290,2013-02-22 16:15:00
10:35 AM,13.5,8.6,81,29.99,10.0,WNW,11.5,-,N/A,,Clear,290,2013-02-22 16:35:00
10:55 AM,14.9,9.5,79,29.99,10.0,WNW,12.7,-,N/A,,Clear,300,2013-02-22 16:55:00
11:15 AM,16.0,10.6,79,29.99,10.0,WNW,12.7,-,N/A,,Clear,300,2013-02-22 17:15:00
11:35 AM,17.1,11.3,78,29.99,10.0,NW,11.5,-,N/A,,Clear,310,2013-02-22 17:35:00
11:55 AM,17.6,12.0,79,30.00,10.0,WNW,12.7,-,N/A,,Clear,290,2013-02-22 17:55:00
12:15 PM,18.1,12.2,78,30.00,10.0,WNW,11.5,-,N/A,,Clear,300,2013-02-22 18:15:00
12:35 PM,18.9,12.9,78,29.99,10.0,NW,9.2,-,N/A,,Clear,310,2013-02-22 18:35:00
12:55 PM,19.8,13.3,76,29.98,10.0,NW,12.7,-,N/A,,Clear,320,2013-02-22 18:55:00
1:15 PM,20.3,14.0,77,29.98,10.0,NW,10.4,-,N/A,,Clear,320,2013-02-22 19:15:00
1:35 PM,21.2,14.7,76,29.98,10.0,WNW,8.1,-,N/A,,Clear,300,2013-02-22 19:35:00
1:55 PM,21.9,15.4,76,29.97,10.0,NW,6.9,-,0.01,,Clear,310,2013-02-22 19:55:00
2:15 PM,22.5,15.4,74,29.97,10.0,NW,9.2,-,N/A,,Clear,320,2013-02-22 20:15:00
2:35 PM,22.8,16.0,75,29.97,10.0,WNW,8.1,-,N/A,,Clear,300,2013-02-22 20:35:00
2:55 PM,23.0,16.2,75,29.97,10.0,WNW,9.2,-,N/A,,Clear,300,2013-02-22 20:55:00
3:15 PM,23.0,16.2,75,29.97,10.0,WNW,8.1,-,N/A,,Clear,290,2013-02-22 21:15:00
3:35 PM,23.4,16.5,75,29.97,10.0,WNW,6.9,-,N/A,,Clear,290,2013-02-22 21:35:00
3:55 PM,23.0,16.3,76,29.97,10.0,West,5.8,-,N/A,,Clear,280,2013-02-22 21:55:00
4:15 PM,23.0,17.2,79,29.97,4.0,West,5.8,-,N/A,,Haze,280,2013-02-22 22:15:00
4:35 PM,22.5,15.8,76,29.97,10.0,WNW,8.1,-,N/A,,Clear,290,2013-02-22 22:35:00
4:55 PM,21.9,15.6,77,29.97,10.0,WNW,8.1,-,N/A,,Clear,290,2013-02-22 22:55:00
5:15 PM,21.2,15.3,78,29.97,10.0,West,6.9,-,N/A,,Clear,280,2013-02-22 23:15:00
5:35 PM,20.8,14.7,77,29.97,10.0,West,6.9,-,N/A,,Clear,280,2013-02-22 23:35:00
5:55 PM,19.9,14.0,78,29.97,10.0,NW,4.6,-,N/A,,Clear,310,2013-02-22 23:55:00
6:15 PM,16.7,12.2,82,29.96,10.0,NW,6.9,-,N/A,,Clear,310,2013-02-23 00:15:00
6:35 PM,15.3,10.2,80,29.97,10.0,NW,5.8,-,N/A,,Clear,320,2013-02-23 00:35:00
6:55 PM,14.9,12.4,90,29.97,10.0,West,4.6,-,N/A,,Clear,260,2013-02-23 00:55:00
7:15 PM,16.3,12.9,86,29.97,10.0,SW,3.5,-,N/A,,Clear,220,2013-02-23 01:15:00
7:35 PM,9.9,6.3,85,29.97,10.0,Calm,Calm,-,N/A,,Clear,0,2013-02-23 01:35:00
7:55 PM,13.3,10.4,88,29.96,10.0,Calm,Calm,-,N/A,,Clear,0,2013-02-23 01:55:00
8:15 PM,14.4,11.8,90,29.96,10.0,South,5.8,-,N/A,,Clear,190,2013-02-23 02:15:00
8:35 PM,14.4,11.7,89,29.96,10.0,SW,4.6,-,N/A,,Clear,220,2013-02-23 02:35:00
8:55 PM,12.4,9.1,87,29.96,10.0,Calm,Calm,-,N/A,,Clear,0,2013-02-23 02:55:00
9:15 PM,11.5,8.8,89,29.95,10.0,Calm,Calm,-,N/A,,Clear,0,2013-02-23 03:15:00
9:35 PM,11.3,9.0,90,29.95,7.0,South,3.5,-,N/A,,Clear,170,2013-02-23 03:35:00
9:55 PM,10.4,8.1,90,29.95,4.0,South,3.5,-,N/A,,Clear,190,2013-02-23 03:55:00
10:15 PM,6.3,2.7,85,29.95,3.0,Calm,Calm,-,N/A,,Clear,0,2013-02-23 04:15:00
10:35 PM,7.0,4.1,88,29.95,0.2,Calm,Calm,-,N/A,Fog,Light Freezing Fog,0,2013-02-23 04:35:00
10:55 PM,4.8,1.2,85,29.95,0.2,Calm,Calm,-,N/A,Fog,Light Freezing Fog,0,2013-02-23 04:55:00
11:15 PM,0.9,-3.1,83,29.95,0.2,Calm,Calm,-,N/A,Fog,Light Freezing Fog,0,2013-02-23 05:15:00
11:35 PM,-1.3,-5.3,83,29.94,0.2,Calm,Calm,-,N/A,Fog,Light Freezing Fog,0,2013-02-23 05:35:00
11:55 PM,-0.9,-4.7,84,29.93,0.2,Calm,Calm,-,N/A,Fog,Light Freezing Fog,0,2013-02-23 05:55:00